BEIDOU-3 M16 (C35)

Last updated on Aug. 7, 2020, 5:36 a.m. UTC

1 43648U 18078B   20219.59344529 -.00000103  00000-0  10000-3 0  9993
2 43648  55.2004  13.9137 0004014  13.0023 164.1514  1.86232323 12314
UTC
Height (km)
Latitude
Longitude
Inclination
Orbital Period
UTC large
Height (km)
Speed (km/s)
/
Latitude / Longitude
Inclination (degrees)
Orbital Period (minutes)
Azimuth
Elevation
Range (km)
Doppler Factor
iOS Compass Heading
iOS Angle

Next 30 passes for location: Hong Kong

Rise time Rise Azimuth (degrees) Set time Set Azimuth (degrees) Duration Max altitude (degrees)

No matching passes for this satellites